Belleville, IL

1:45 PM CDT on September 21, 2017 (GMT -0500)
Scott Air Force Base-Midamerica

Weather History for KBLV - January, 2013

Change the Weather History Date:

Friday, January 25, 2013

  Actual Average Record
Temperature  
Mean Temperature 34 °F -  
Max Temperature 42 °F 42 °F 74 °F (1950)
Min Temperature 27 °F 23 °F -3 °F (1961)
Degree Days  
Heating Degree Days 30    
Moisture  
Dew Point 15 °F    
Average Humidity 48    
Maximum Humidity 61    
Minimum Humidity 40    
Precipitation  
Precipitation 0.00 in - - ()
Sea Level Pressure  
Sea Level Pressure 30.18 in    
Wind  
Wind Speed 6 mph (West)    
Max Wind Speed 10 mph    
Max Gust Speed -    
Visibility 10 miles    
Events      
Averages and records for this station are not official NWS values.
T = Trace of Precipitation, MM = Missing Value Source: NWS Daily Summary

Daily Weather History Graph

Daily Weather History Graph

Search for Another Location

Airport or City:

Trip Planner

Search our weather history database for the weather conditions in past years. The results will help you decide how hot, cold, wet, or windy it might be!

Date:

Astronomy

Jan. 25, 2013 Rise Set
Actual Time 7:10 AM CST 5:13 PM CST
Civil Twilight 6:41 AM CST 5:42 PM CST
Nautical Twilight 6:09 AM CST 6:14 PM CST
Astronomical Twilight 5:38 AM CST 6:45 PM CST
Moon 4:10 PM CST (1/25) 5:49 AM CST (1/25)
Length of Visible Light 11h 00m
Length of Day
10h 03m
Waxing Gibbous, 98% of the Moon is Illuminated
Jan 25
Waxing Gibbous
Jan 26
Full
Feb 3
Last Quarter
Feb 10
New
Feb 17
First Quarter

Hourly Weather History & Observations

Time (CST) Temp. Windchill Dew Point Humidity Pressure Visibility Wind Dir Wind Speed Gust Speed Precip Events Conditions
12:55 AM 27.7 °F 19.6 °F 7.5 °F 43% 30.28 in 10.0 mi East 8.1 mph - N/A   Overcast
1:55 AM 27.5 °F 18.0 °F 8.1 °F 44% 30.24 in 10.0 mi ESE 10.4 mph - N/A   Overcast
2:55 AM 27.7 °F 22.4 °F 6.6 °F 41% 30.21 in 10.0 mi SE 4.6 mph - N/A   Overcast
3:55 AM 27.7 °F 22.4 °F 5.9 °F 40% 30.19 in 10.0 mi SE 4.6 mph - N/A   Overcast
4:21 AM 28.4 °F - 6.8 °F 40% 30.19 in 10.0 mi Calm Calm - N/A   Overcast
4:55 AM 27.5 °F 23.6 °F 6.3 °F 41% 30.21 in 10.0 mi NNW 3.5 mph - N/A   Overcast
5:55 AM 27.5 °F - 8.2 °F 44% 30.18 in 10.0 mi Calm Calm - N/A   Overcast
6:55 AM 27.3 °F - 10.8 °F 50% 30.15 in 10.0 mi Calm Calm - N/A   Overcast
7:55 AM 27.7 °F - 11.5 °F 51% 30.17 in 10.0 mi Calm Calm - N/A   Overcast
8:19 AM 28.4 °F 24.6 °F 10.4 °F 47% 30.18 in 10.0 mi WNW 3.5 mph - N/A   Overcast
8:55 AM 29.3 °F 25.6 °F 11.7 °F 48% 30.19 in 10.0 mi Variable 3.5 mph - N/A   Overcast
8:56 AM 30.2 °F 25.4 °F 12.2 °F 47% 30.19 in 10.0 mi WNW 4.6 mph - N/A   Overcast
9:21 AM 30.2 °F 25.4 °F 14.0 °F 51% 30.19 in 10.0 mi WNW 4.6 mph - N/A   Overcast
9:55 AM 31.5 °F 25.8 °F 15.4 °F 52% 30.20 in 10.0 mi WNW 5.8 mph - N/A   Overcast
10:53 AM 33.8 °F 27.0 °F 17.6 °F 52% 30.18 in 10.0 mi WNW 8.1 mph - N/A   Overcast
10:55 AM 34.5 °F 26.7 °F 17.2 °F 49% 30.19 in 10.0 mi WNW 10.4 mph - N/A   Overcast
11:55 AM 37.8 °F 31.3 °F 19.8 °F 48% 30.16 in 10.0 mi NW 9.2 mph - N/A   Mostly Cloudy
11:59 AM 37.4 °F 31.4 °F 19.4 °F 48% 30.15 in 10.0 mi West 8.1 mph - N/A   Scattered Clouds
12:55 PM 39.6 °F 34.0 °F 19.9 °F 45% 30.14 in 10.0 mi West 8.1 mph - N/A   Clear
1:55 PM 41.5 °F 35.9 °F 19.4 °F 41% 30.14 in 10.0 mi WSW 9.2 mph - N/A   Clear
2:55 PM 42.8 °F 39.3 °F 19.8 °F 40% 30.13 in 10.0 mi West 5.8 mph - N/A   Clear
3:55 PM 42.8 °F 37.0 °F 20.7 °F 41% 30.12 in 10.0 mi West 10.4 mph - N/A   Clear
4:55 PM 40.5 °F 37.3 °F 20.5 °F 45% 30.13 in 10.0 mi West 4.6 mph - N/A   Clear
5:55 PM 37.0 °F 33.3 °F 19.9 °F 50% 30.16 in 10.0 mi West 4.6 mph - N/A   Clear
6:55 PM 36.7 °F 32.0 °F 20.1 °F 51% 30.17 in 10.0 mi West 5.8 mph - N/A   Clear
7:55 PM 34.3 °F 29.2 °F 20.7 °F 57% 30.17 in 10.0 mi West 5.8 mph - N/A   Clear
8:55 PM 33.6 °F 28.4 °F 20.5 °F 59% 30.18 in 10.0 mi West 5.8 mph - N/A   Clear
9:55 PM 34.0 °F 28.8 °F 19.9 °F 56% 30.20 in 10.0 mi West 5.8 mph - N/A   Clear
10:55 PM 31.8 °F 25.4 °F 19.4 °F 60% 30.22 in 10.0 mi West 6.9 mph - N/A   Clear
11:55 PM 31.8 °F 24.6 °F 19.6 °F 61% 30.24 in 10.0 mi WNW 8.1 mph - N/A   Clear